Waarnemingen

Advertentie
Mijn weer
Rostherne No 2, Groot Brittannië (3351): temperatuur & dauwpunt: 16.01.2020 03:00:00 - 22.01.2020 03:00:00 (GMT)Rostherne No 2, Groot Brittannië (3351): windsnelheid & windstoten: 16.01.2020 03:00:00 - 22.01.2020 03:00:00 (GMT)Rostherne No 2, Groot Brittannië (3351): windrichting: 16.01.2020 03:00:00 - 22.01.2020 03:00:00 (GMT)Rostherne No 2, Groot Brittannië (3351): luchtdruk: 16.01.2020 03:00:00 - 22.01.2020 03:00:00 (GMT)Rostherne No 2, Groot Brittannië (3351): zicht: 16.01.2020 03:00:00 - 22.01.2020 03:00:00 (GMT)Rostherne No 2, Groot Brittannië (3351): Zonneschijnduur: 16.01.2020 03:00:00 - 22.01.2020 03:00:00 (GMT)Rostherne No 2, Groot Brittannië (3351): neerslag: 16.01.2020 03:00:00 - 22.01.2020 03:00:00 (GMT)
Datum & Tijd tt [°C] td [°C] ff [km/u] ff [kn] fx [km/u] fx [kn] dd ppp [hPa] vv [km] sd [min] rr [mm]
22.01.2020 03:00:00 7,1 7,1 4 2 - - W 1038,9 0,2 0 0,0
22.01.2020 02:00:00 7,2 7,2 2 1 - - W 1039,2 0,3 0 0,0
22.01.2020 01:00:00 7,1 7,1 4 2 - - W 1039,4 0,3 0 0,2
22.01.2020 00:00:00 7,2 7,2 0 0 - - N 1039,9 0,3 - 0,0
21.01.2020 23:00:00 7,1 7,1 5 3 - - NW 1039,8 0,4 0 0,0
21.01.2020 22:00:00 7,0 7,0 4 2 - - NW 1039,8 0,9 0 0,0
21.01.2020 21:00:00 7,0 7,0 5 3 - - WNW 1040,1 1,5 0 0,0
21.01.2020 20:00:00 7,0 7,0 5 3 - - NNW 1040,2 1,5 0 0,0
21.01.2020 19:00:00 6,9 6,9 4 2 - - NW 1040,1 2,0 0 0,0
21.01.2020 18:00:00 6,9 6,9 8 4 - - NNW 1039,9 2,8 0 0,0
21.01.2020 17:00:00 7,0 6,9 8 4 - - NNW 1039,9 2,0 0 0,2
21.01.2020 16:00:00 7,1 7,0 8 4 - - WNW 1040,3 1,5 0 0,0
21.01.2020 15:00:00 6,9 6,9 5 3 - - WNW 1040,4 3,6 - 0,0
21.01.2020 14:00:00 - - 4 2 - - ZZW - - - 0,0
21.01.2020 13:00:00 - - 4 2 - - ZZW - - - 0,0
21.01.2020 12:00:00 - - 5 3 - - ZZW - - - 0,0
21.01.2020 11:00:00 5,5 4,8 4 2 - - Z 1041,9 10 0 0,0
21.01.2020 10:00:00 4,6 4,4 4 2 - - Z 1041,9 12 0 0,0
21.01.2020 09:00:00 4,1 3,9 4 2 - - ZZW 1041,7 10 0 0,0
21.01.2020 08:00:00 2,9 2,8 2 1 - - Z 1041,5 8 0 0,0
21.01.2020 07:00:00 2,9 2,8 4 2 - - ZZW 1041,4 9 0 0,0
21.01.2020 06:00:00 2,8 2,6 5 3 - - ZO 1042,0 7 0 0,0
21.01.2020 05:00:00 2,8 2,7 4 2 - - Z 1041,8 10 0 0,0
21.01.2020 04:00:00 2,5 2,4 5 3 - - ZZO 1041,8 9 0 0,0
21.01.2020 03:00:00 2,7 2,6 2 1 - - OZO 1042,3 11 0 0,0
21.01.2020 02:00:00 2,3 2,3 5 3 - - ZZW 1042,9 9 0 0,0
21.01.2020 01:00:00 1,8 1,8 4 2 - - ZW 1043,3 13 0 0,0
21.01.2020 00:00:00 1,1 1,1 2 1 - - WZW 1043,9 6 - 0,0
20.01.2020 23:00:00 1,1 1,0 2 1 - - ZZW 1044,5 9 0 0,0
20.01.2020 22:00:00 1,3 1,2 2 1 - - WNW 1044,8 11 0 0,0
20.01.2020 21:00:00 1,2 1,1 5 3 - - W 1045,2 12 0 0,0
20.01.2020 20:00:00 1,6 1,4 4 2 - - W 1045,5 12 0 0,0
20.01.2020 19:00:00 0,7 0,3 4 2 - - ZW 1045,5 7 0 0,0
20.01.2020 18:00:00 1,9 1,2 4 2 - - ZZW 1045,4 11 0 0,0
20.01.2020 17:00:00 4,2 2,6 5 3 - - W 1045,2 30 6 0,0
20.01.2020 16:00:00 7,0 3,6 9 5 - - WNW 1045,3 35 60 0,0
20.01.2020 15:00:00 8,4 4,6 4 2 - - WZW 1045,6 20 60 0,0
20.01.2020 14:00:00 7,8 3,8 5 3 - - WZW 1046,1 20 60 0,0
20.01.2020 13:00:00 7,9 4,4 2 1 - - ZZW 1046,7 20 60 0,0
20.01.2020 12:00:00 6,0 3,8 4 2 - - ZZW 1047,5 22 60 0,0
20.01.2020 11:00:00 3,8 3,3 5 3 - - Z 1048,1 17 48 0,0
20.01.2020 10:00:00 2,0 2,0 5 3 - - Z 1048,1 14 24 0,0
20.01.2020 09:00:00 0,7 0,7 5 3 - - Z 1047,9 13 0 0,0
20.01.2020 08:00:00 0,9 0,9 4 2 - - Z 1047,4 16 0 0,0
20.01.2020 07:00:00 0,2 0,2 5 3 - - ZO 1047,6 9 0 0,0
20.01.2020 06:00:00 -1,0 -1,0 0 0 - - N 1047,5 8 0 0,0
20.01.2020 05:00:00 -2,5 -2,5 0 0 - - N 1047,7 3,3 0 0,0
20.01.2020 04:00:00 -2,5 -2,5 0 0 - - N 1047,9 5 0 0,0
20.01.2020 03:00:00 -2,0 -2,0 0 0 - - N 1047,9 3,8 0 0,0
20.01.2020 02:00:00 -1,6 -1,6 0 0 - - N 1048,4 1,7 0 0,0
20.01.2020 01:00:00 -1,7 -1,7 2 1 - - ZO 1048,3 0,5 0 0,0
20.01.2020 00:00:00 -0,7 -0,7 0 0 - - N 1048,5 0,1 - 0,0
19.01.2020 23:00:00 -0,2 -0,2 2 1 - - O 1048,0 0,4 0 0,0
19.01.2020 22:00:00 0,9 0,9 4 2 - - Z 1047,9 1,0 0 0,0
19.01.2020 21:00:00 1,1 1,1 5 3 - - ZO 1048,0 1,3 0 0,0
19.01.2020 20:00:00 0,7 0,7 4 2 - - ZO 1048,0 0,3 0 0,0
19.01.2020 19:00:00 0,6 0,6 4 2 - - ZZO 1048,0 0,5 0 0,0
19.01.2020 18:00:00 0,6 0,6 4 2 - - ZZO 1048,1 0,2 0 0,0
19.01.2020 17:00:00 1,0 1,0 5 3 - - Z 1047,5 0,1 0 0,0
19.01.2020 16:00:00 1,3 1,3 8 4 - - ZO 1047,3 0,1 0 0,0
19.01.2020 15:00:00 1,1 1,1 4 2 - - Z 1047,1 0,1 0 0,0
19.01.2020 14:00:00 1,4 1,4 5 3 - - W 1046,8 0,2 0 0,0
19.01.2020 13:00:00 0,8 0,8 4 2 - - Z 1046,5 0,3 0 0,2
19.01.2020 12:00:00 -0,2 -0,2 4 2 - - ZO 1046,3 0,4 0 0,0
19.01.2020 11:00:00 -1,3 -1,3 0 0 - - N 1046,8 0,3 0 0,0
19.01.2020 10:00:00 -2,0 -2,0 2 1 - - OZO 1046,3 0,2 0 0,0
19.01.2020 09:00:00 -2,1 -2,1 4 2 - - OZO 1045,3 0,2 0 0,0
19.01.2020 08:00:00 -1,8 -1,8 4 2 - - OZO 1044,6 0,2 0 0,0
19.01.2020 07:00:00 -1,4 -1,4 4 2 - - OZO 1043,4 0,2 0 0,0
19.01.2020 06:00:00 -0,8 -0,8 4 2 - - OZO 1042,3 0,1 0 0,0
19.01.2020 05:00:00 -0,7 -0,8 2 1 - - ZO 1041,4 0,1 0 0,0
19.01.2020 04:00:00 -1,1 -1,2 5 3 - - OZO 1040,7 0,1 0 0,0
19.01.2020 03:00:00 -1,9 -2,1 4 2 - - OZO 1040,3 0,1 0 0,0
19.01.2020 02:00:00 -2,6 -2,9 4 2 - - ZO 1039,7 0,8 0 0,0
19.01.2020 01:00:00 -2,1 -2,4 4 2 - - OZO 1038,8 8 0 0,0
19.01.2020 00:00:00 -1,6 -1,9 8 4 - - WNW 1038,0 5 - 0,0
18.01.2020 23:00:00 -0,9 -1,2 4 2 - - Z 1036,9 4,1 0 0,0
18.01.2020 22:00:00 0,7 0,5 8 4 - - NNW 1036,1 10 0 0,0
18.01.2020 21:00:00 1,0 0,5 4 2 - - N 1034,9 12 0 0,0
18.01.2020 20:00:00 2,0 0,8 8 4 - - W 1034,1 15 0 0,0
18.01.2020 19:00:00 2,8 1,9 9 5 - - WNW 1033,6 19 0 0,0
18.01.2020 18:00:00 3,4 1,5 5 3 - - NW 1032,7 21 0 0,0
18.01.2020 17:00:00 4,7 2,2 13 7 - - WNW 1031,4 25 0 0,0
18.01.2020 16:00:00 5,4 2,3 13 7 - - WNW 1030,6 27 0 0,0
18.01.2020 15:00:00 6,3 2,7 13 7 - - NW 1029,7 30 18 0,0
18.01.2020 14:00:00 6,7 2,2 18 10 - - NW 1028,8 27 60 0,0
18.01.2020 13:00:00 7,4 2,3 22 12 - - NW 1028,0 28 60 0,0
18.01.2020 12:00:00 6,8 3,2 13 7 - - WNW 1027,6 24 60 0,0
18.01.2020 11:00:00 5,7 3,0 8 4 - - WZW 1027,2 14 60 0,2
18.01.2020 10:00:00 2,7 2,2 4 2 - - WZW 1026,5 16 18 0,0
18.01.2020 09:00:00 -0,5 -1,0 8 4 - - ZZW 1025,7 10 0 0,0
18.01.2020 08:00:00 0,3 -0,2 8 4 - - ZZW 1024,8 12 0 0,0
18.01.2020 07:00:00 1,9 1,0 5 3 - - WZW 1023,8 14 0 0,0
18.01.2020 06:00:00 2,2 1,0 8 4 - - W 1022,8 17 0 0,0
18.01.2020 05:00:00 2,5 1,0 11 6 - - W 1021,9 17 0 0,0
18.01.2020 04:00:00 2,6 0,8 11 6 - - W 1021,2 15 0 0,0
18.01.2020 03:00:00 2,8 0,8 13 7 - - W 1020,9 16 0 0,0
18.01.2020 02:00:00 3,1 1,2 11 6 - - WNW 1020,3 16 0 0,0
18.01.2020 01:00:00 3,3 1,6 13 7 - - WNW 1019,3 13 0 0,0
18.01.2020 00:00:00 4,3 3,5 13 7 - - WZW 1018,2 17 - 0,0
17.01.2020 23:00:00 3,6 2,7 15 8 - - ZW 1017,2 24 0 0,0
17.01.2020 22:00:00 3,8 3,0 13 7 - - WZW 1016,3 8 0 0,2
17.01.2020 21:00:00 3,9 3,0 9 5 50 27 WZW 1015,6 20 0 0,8
17.01.2020 20:00:00 3,5 1,6 11 6 - - ZW 1014,8 7 0 0,0
17.01.2020 19:00:00 4,0 1,5 8 4 - - ZZW 1013,9 35 0 0,0
17.01.2020 18:00:00 4,4 1,9 9 5 - - ZW 1013,2 35 0 0,0
17.01.2020 17:00:00 4,8 2,6 9 5 - - ZW 1012,2 30 0 0,0
17.01.2020 16:00:00 5,7 2,6 13 7 - - WZW 1011,3 26 42 0,0
17.01.2020 15:00:00 6,2 3,4 13 7 - - WZW 1010,9 35 6 0,0
17.01.2020 14:00:00 5,8 3,4 13 7 - - WZW 1010,1 40 0 0,0
17.01.2020 13:00:00 5,5 4,2 8 4 - - ZW 1009,5 26 0 0,0
17.01.2020 12:00:00 4,6 3,9 8 4 - - NW 1008,9 21 0 0,6
17.01.2020 11:00:00 4,2 3,7 8 4 - - W 1008,1 13 0 0,2
17.01.2020 10:00:00 4,2 3,4 26 14 48 26 NW 1006,7 12 0 0,4
17.01.2020 09:00:00 6,3 6,0 15 8 - - W 1005,2 3,4 0 0,2
17.01.2020 08:00:00 6,7 6,4 5 3 - - ZZW 1004,6 9 0 0,2
17.01.2020 07:00:00 6,7 6,1 4 2 - - Z 1004,2 8 0 0,8
17.01.2020 06:00:00 7,5 6,5 11 6 - - Z 1004,1 9 0 0,2
17.01.2020 05:00:00 6,3 5,7 9 5 - - ZZO 1004,3 19 0 0,0
17.01.2020 04:00:00 6,6 5,8 4 2 - - ZZW 1004,8 15 0 0,0
17.01.2020 03:00:00 6,8 5,9 9 5 - - ZZO 1004,9 9 0 1,6
17.01.2020 02:00:00 7,8 5,5 11 6 - - Z 1005,4 12 0 0,0
17.01.2020 01:00:00 7,7 4,9 8 4 - - Z 1005,6 24 0 0,0
17.01.2020 00:00:00 8,0 4,9 9 5 - - Z 1005,5 29 - 0,0
16.01.2020 23:00:00 8,9 5,4 13 7 - - ZZW 1005,4 28 0 0,0
16.01.2020 22:00:00 9,6 5,8 11 6 - - ZW 1004,8 35 0 0,0
16.01.2020 21:00:00 10,6 7,0 16 9 - - ZW 1004,0 40 0 0,0
16.01.2020 20:00:00 11,5 7,6 22 12 - - ZZW 1002,2 30 0 0,0
16.01.2020 19:00:00 11,4 9,3 22 12 50 27 Z 1001,3 40 0 0,0
16.01.2020 18:00:00 10,8 9,5 24 13 - - Z 1000,6 35 0 0,8
16.01.2020 17:00:00 10,3 8,9 28 15 63 34 Z 1000,9 3,5 0 0,2
16.01.2020 16:00:00 11,2 8,3 34 18 63 34 Z 1000,9 45 0 0,0
16.01.2020 15:00:00 11,0 7,9 35 19 61 33 Z 1001,2 45 0 0,0
16.01.2020 14:00:00 9,6 7,3 39 21 57 31 ZZO 1002,2 40 0 0,2
16.01.2020 13:00:00 8,9 6,2 41 22 63 34 ZZO 1004,8 14 0 0,0
16.01.2020 12:00:00 8,2 5,1 37 20 59 32 ZZO 1006,1 35 0 0,0
16.01.2020 11:00:00 8,5 4,7 31 17 57 31 Z 1009,0 27 30 0,0
16.01.2020 10:00:00 8,3 5,0 26 14 46 25 Z 1010,1 22 6 0,0
16.01.2020 09:00:00 7,6 5,1 24 13 - - ZZO 1010,9 19 0 0,0
16.01.2020 08:00:00 7,1 5,0 24 13 - - Z 1011,3 16 0 0,0
16.01.2020 07:00:00 6,6 5,0 18 10 - - ZZO 1011,9 17 0 0,0
16.01.2020 06:00:00 6,5 4,8 16 9 - - Z 1012,6 18 0 0,0
16.01.2020 05:00:00 5,2 3,2 15 8 - - ZZO 1012,9 19 0 0,0
16.01.2020 04:00:00 5,9 3,9 15 8 - - Z 1013,7 21 0 0,0
16.01.2020 03:00:00 6,1 4,0 16 9 - - Z 1013,9 26 0 0,0

tt = temperatuur
td = dauwpunt
ff = windsnelheid
fx = windstoten
dd = windrichting
ppp = luchtdruk
vv = zicht
sd = Zonneschijnduur
rr = neerslag

Weerstations in de omgeving